Rockport, TX

4:22 AM CDT on September 24, 2017 (GMT -0500)
Aransas County

Weather History for KRKP - February, 2012

Change the Weather History Date:

Tuesday, February 28, 2012

  Actual Average Record
Temperature  
Mean Temperature 70 °F -  
Max Temperature 77 °F 70 °F 82 °F (1986)
Min Temperature 63 °F 54 °F 32 °F (1962)
Cooling Degree Days 5    
Growing Degree Days 20 (Base 50)    
Moisture  
Dew Point 68 °F    
Average Humidity 92    
Maximum Humidity 100    
Minimum Humidity 76    
Precipitation  
Precipitation 0.00 in - - ()
Sea Level Pressure  
Sea Level Pressure 30.04 in    
Wind  
Wind Speed 10 mph (SSE)    
Max Wind Speed 16 mph    
Max Gust Speed 26 mph    
Visibility 4 miles    
Events Fog    
Averages and records for this station are not official NWS values.
T = Trace of Precipitation, MM = Missing Value Source: NWS Daily Summary

Daily Weather History Graph

Daily Weather History Graph

Search for Another Location

Airport or City:

Trip Planner

Search our weather history database for the weather conditions in past years. The results will help you decide how hot, cold, wet, or windy it might be!

Date:

Astronomy

Feb. 28, 2012 Rise Set
Actual Time 6:54 AM CST 6:27 PM CST
Civil Twilight 6:30 AM CST 6:51 PM CST
Nautical Twilight 6:03 AM CST 7:18 PM CST
Astronomical Twilight 5:36 AM CST 7:45 PM CST
Moon 10:39 AM CST (2/28) No Moon Set
Length of Visible Light 12h 20m
Length of Day
11h 33m
Waxing Crescent, 38% of the Moon is Illuminated
Feb 28
Waxing Crescent
Feb 29
First Quarter
Mar 8
Full
Mar 14
Last Quarter
Mar 22
New

Hourly Weather History & Observations

Time (CST) Temp. Dew Point Humidity Pressure Visibility Wind Dir Wind Speed Gust Speed Precip Events Conditions
12:53 AM 63.0 °F 63.0 °F 100% 30.12 in 0.5 mi East 11.5 mph - N/A Fog Fog
1:53 AM 63.0 °F 63.0 °F 100% 30.11 in 1.0 mi East 9.2 mph - N/A   Mist
2:05 AM 64.4 °F 64.4 °F 100% 30.10 in 0.8 mi East 9.2 mph - N/A   Mist
2:53 AM 64.0 °F 64.0 °F 100% 30.08 in 0.5 mi East 8.1 mph - N/A Fog Fog
3:53 AM 64.9 °F 64.9 °F 100% 30.06 in 0.2 mi ESE 9.2 mph - N/A Fog Fog
4:53 AM 64.9 °F 64.9 °F 100% 30.07 in 0.2 mi ESE 4.6 mph - N/A Fog Fog
5:53 AM 64.9 °F 64.9 °F 100% 30.08 in 0.2 mi ESE 4.6 mph - N/A Fog Fog
6:53 AM 64.9 °F 64.9 °F 100% 30.09 in 0.2 mi ESE 4.6 mph - N/A Fog Fog
7:53 AM 66.0 °F 66.0 °F 100% 30.10 in 0.2 mi SE 5.8 mph - N/A Fog Fog
8:28 AM 66.2 °F 66.2 °F 100% 30.11 in 1.2 mi SE 4.6 mph - N/A   Overcast
8:43 AM 68.0 °F 68.0 °F 100% 30.11 in 2.5 mi SSE 5.8 mph - N/A   Overcast
8:53 AM 68.0 °F 68.0 °F 100% 30.12 in 2.5 mi SSE 6.9 mph - N/A   Overcast
9:05 AM 68.0 °F 68.0 °F 100% 30.11 in 3.0 mi SSE 8.1 mph - N/A   Overcast
9:12 AM 68.0 °F 68.0 °F 100% 30.11 in 4.0 mi South 6.9 mph - N/A   Overcast
9:53 AM 69.1 °F 68.0 °F 96% 30.12 in 6.0 mi SSE 10.4 mph - N/A   Overcast
10:04 AM 69.8 °F 68.0 °F 94% 30.11 in 5.0 mi South 9.2 mph - N/A   Overcast
10:34 AM 73.4 °F 69.8 °F 88% 30.11 in 9.0 mi SSE 10.4 mph 18.4 mph N/A   Mostly Cloudy
10:53 AM 73.9 °F 68.0 °F 82% 30.11 in 10.0 mi SSE 15.0 mph 21.9 mph N/A   Mostly Cloudy
11:01 AM 73.4 °F 68.0 °F 83% 30.11 in 10.0 mi SSE 12.7 mph 20.7 mph N/A   Overcast
11:18 AM 71.6 °F 68.0 °F 88% 30.10 in 9.0 mi South 8.1 mph 20.7 mph N/A   Overcast
11:53 AM 73.9 °F 68.0 °F 82% 30.09 in 8.0 mi SSE 10.4 mph 20.7 mph N/A   Mostly Cloudy
12:25 PM 77.0 °F 69.8 °F 78% 30.07 in 8.0 mi SSE 12.7 mph 21.9 mph N/A   Mostly Cloudy
12:36 PM 77.0 °F 69.8 °F 78% 30.07 in 8.0 mi SSE 10.4 mph 24.2 mph N/A   Scattered Clouds
12:43 PM 75.2 °F 68.0 °F 78% 30.06 in 7.0 mi SSE 13.8 mph 24.2 mph N/A   Mostly Cloudy
12:53 PM 75.9 °F 68.0 °F 76% 30.07 in 8.0 mi SSE 13.8 mph 20.7 mph N/A   Mostly Cloudy
1:02 PM 75.2 °F 68.0 °F 78% 30.04 in 9.0 mi SSE 15.0 mph 20.7 mph N/A   Scattered Clouds
1:53 PM 75.9 °F 69.1 °F 79% 30.03 in 9.0 mi SSE 15.0 mph 23.0 mph N/A   Clear
2:53 PM 77.0 °F 69.1 °F 76% 29.99 in 10.0 mi SSE 15.0 mph 24.2 mph N/A   Clear
3:33 PM 75.2 °F 68.0 °F 78% 29.98 in 10.0 mi SSE 13.8 mph 21.9 mph N/A   Partly Cloudy
3:53 PM 73.9 °F 68.0 °F 82% 29.97 in 9.0 mi SSE 13.8 mph 26.5 mph N/A   Scattered Clouds
4:19 PM 71.6 °F 68.0 °F 88% 29.97 in 8.0 mi SSE 13.8 mph 24.2 mph N/A   Mostly Cloudy
4:53 PM 72.0 °F 68.0 °F 87% 29.98 in 7.0 mi SSE 12.7 mph 21.9 mph N/A   Overcast
5:53 PM 70.0 °F 68.0 °F 93% 29.99 in 6.0 mi SSE 12.7 mph 20.7 mph N/A   Overcast
6:53 PM 69.1 °F 68.0 °F 96% 29.97 in 6.0 mi SSE 13.8 mph 20.7 mph N/A   Overcast
7:10 PM 69.8 °F 68.0 °F 94% 29.97 in 4.0 mi SSE 9.2 mph 20.7 mph N/A   Overcast
7:20 PM 69.8 °F 68.0 °F 94% 29.97 in 2.0 mi SSE 12.7 mph 20.7 mph N/A   Overcast
7:28 PM 69.8 °F 68.0 °F 94% 29.97 in 1.2 mi SSE 12.7 mph 20.7 mph N/A   Overcast
7:41 PM 69.8 °F 68.0 °F 94% 29.97 in 1.0 mi SSE 11.5 mph 20.7 mph N/A   Overcast
7:49 PM 69.8 °F 68.0 °F 94% 29.97 in 0.8 mi SSE 11.5 mph 19.6 mph N/A   Overcast
7:53 PM 68.0 °F 68.0 °F 100% 29.99 in 0.8 mi SSE 10.4 mph 19.6 mph N/A   Mist
8:22 PM 69.8 °F 68.0 °F 94% 29.98 in 1.2 mi SSE 12.7 mph 21.9 mph N/A   Overcast
8:30 PM 69.8 °F 68.0 °F 94% 29.99 in 2.5 mi SSE 10.4 mph 21.9 mph N/A   Overcast
8:38 PM 69.8 °F 68.0 °F 94% 29.99 in 4.0 mi SSE 10.4 mph 19.6 mph N/A   Overcast
8:48 PM 69.8 °F 68.0 °F 94% 29.99 in 5.0 mi SSE 15.0 mph 24.2 mph N/A   Overcast
8:53 PM 69.1 °F 68.0 °F 96% 30.00 in 5.0 mi SSE 12.7 mph 21.9 mph N/A   Overcast
9:30 PM 69.8 °F 68.0 °F 94% 30.00 in 2.5 mi SSE 12.7 mph 24.2 mph N/A   Overcast
9:53 PM 69.1 °F 68.0 °F 96% 30.01 in 3.0 mi SSE 11.5 mph 18.4 mph N/A   Overcast
10:53 PM 69.1 °F 68.0 °F 96% 29.99 in 4.0 mi SSE 11.5 mph 21.9 mph N/A   Overcast
11:17 PM 69.8 °F 68.0 °F 94% 29.97 in 2.0 mi SSE 13.8 mph 20.7 mph N/A   Overcast
11:26 PM 69.8 °F 68.0 °F 94% 29.97 in 2.0 mi SSE 11.5 mph 21.9 mph N/A   Overcast
11:37 PM 69.8 °F 68.0 °F 94% 29.96 in 1.8 mi SSE 13.8 mph 20.7 mph N/A   Overcast
11:48 PM 69.8 °F 68.0 °F 94% 29.96 in 2.5 mi SSE 13.8 mph 23.0 mph N/A   Overcast
11:49 PM 69.1 °F 68.0 °F 96% 29.97 in 2.5 mi SSE 16.1 mph 23.0 mph N/A   Overcast